map of PNH home
PNH - Airport
Location
City:  Phnom Penh, Phnom Penh, Cambodia
Name:Pochentong International Airport
ICAO:VDPP
IATA:PNH

Details
Type:Airport (Aerodrome, Airfield)
Use:Public/Civil, Military, International (customs port of entry)
Latitude:11°32'48"N (11.546556)
Longitude:104°50'39"E (104.844139)
Datum:WGS 1984
Elevation:40 ft (12 m)
Variation:0.49°W (WMM2015 magnetic declination)
-0.02° annual change
Runways:1
Longest:9843 × 144 ft (3000 × 44 m), paved

Time
Time Zone:UTC+7
Local Time:

Weather
METAR:VDPP 281130Z 11006KT 9000 TS SCT015 FEW017CB SCT040 29/26 Q1006 CB
TAF:VDPP 281100Z 2812/2906 21008KT 9999 SCT017
TEMPO 2812/2816 SCT015 FEW017CB SCT040

Related Locations
Nearby:
Farthest:SPRM: 12437 mi / 20015 km
San Ramón [Capitán FAP Leonardo Alvariño Herr Airport], JUN, PE

Find:

   beyond  
but within

Other Information
Maps:
NOTAMs:
Links:
Sources:

  
flag of Cambodia   

Sectional Chart

Flight Planning
at skyvector.com

Satellite Image

Google Maps Satellite view

 

Copyright © 2004-2017 Karl L. Swartz. All rights reserved.
The Great Circle Mapper name and logo are trademarks of the Great Circle Mapper.
All other trademarks mentioned herein belong to their respective owners.
Please see credits for attibutions and further copyright information.

  Follow gcmap on Facebook Follow gcmap on Twitter Follow gcmap on Google+ GCmap on LinkedIn

hCard Microformat

Geo Microformat